Wind_Speed
33 32 32 32 31 30 30 31 30 29 29 31 31 30 31 32 30 28 29 25 18 14 14 16 16 17 18 19 19 19 18 18 19 19 20 21 21 20 20 21 21 21 22 20 19 19 21 23 25 25 25 25 27 28 29 28 29 30 29 29 30 31 31 31 29 29 29 28 28 28 27 26 25 25 25 26 26 26 26 26 27 27 27 26 27 27 27
32 32 32 33 33 33 34 33 31 29 28 29 29 30 32 32 32 33 32 27 21 16 14 15 16 17 18 17 18 19 20 20 19 19 19 18 17 17 17 18 18 19 19 19 19 20 21 22 22 23 24 25 27 27 26 25 28 31 32 31 31 31 31 31 31 32 31 29 28 28 27 26 25 25 26 26 26 25 24 25 26 27 27 27 27 27 28
31 31 32 33 35 36 36 35 33 31 30 29 29 29 30 32 34 35 32 27 24 20 18 16 15 16 17 17 17 18 20 20 20 19 19 18 17 16 16 17 18 18 19 19 20 21 21 21 22 22 23 24 25 24 22 21 23 28 31 31 30 30 29 29 32 32 31 29 27 26 25 25 24 24 26 27 27 27 26 26 26 26 27 27 27 26 26
31 31 32 33 34 36 37 36 34 33 33 33 31 29 30 32 35 35 32 27 24 23 21 19 17 17 18 17 16 17 18 20 20 19 19 18 18 17 17 18 18 19 20 20 20 21 22 22 22 22 22 22 22 21 20 20 20 20 23 26 27 27 27 28 29 30 30 29 27 24 23 23 22 22 24 26 27 28 28 28 27 27 27 27 27 26 25
31 31 33 34 34 34 37 37 36 35 35 34 33 32 32 33 35 35 33 29 25 24 23 21 20 20 19 18 17 17 17 18 19 19 19 19 19 19 18 19 19 20 20 20 21 22 24 24 23 21 20 19 19 17 16 17 18 17 17 19 21 24 26 26 27 28 28 27 25 24 23 21 20 20 22 24 26 29 29 29 29 29 27 27 27 27 26
32 31 31 34 35 36 36 34 34 37 38 36 35 34 33 34 36 35 33 30 27 26 25 23 22 21 20 19 19 18 18 17 17 19 20 20 20 20 19 20 20 20 21 20 19 18 20 22 21 18 17 16 16 15 14 14 15 14 14 14 15 18 21 23 25 26 27 25 24 23 21 19 19 21 23 23 22 23 25 27 29 31 30 29 29 28 28
29 29 30 33 35 34 32 29 29 35 39 37 35 34 33 34 36 35 33 31 29 28 27 25 24 23 22 22 21 20 20 19 19 21 21 21 21 21 21 21 21 20 21 21 19 16 14 16 16 15 14 13 13 14 13 13 13 13 13 13 13 14 17 19 21 23 24 22 22 22 20 19 22 23 24 23 19 18 20 23 25 27 28 27 25 25 26
22 23 25 28 29 28 27 25 24 29 35 38 37 35 34 35 35 34 34 32 31 30 29 28 27 26 25 25 24 23 22 22 22 23 23 22 22 23 24 23 22 22 21 21 21 19 16 15 15 15 14 14 15 15 15 15 14 14 14 14 14 14 16 17 18 20 21 20 20 21 21 22 23 23 22 22 21 19 20 21 21 21 21 20 20 20 21
20 21 23 23 22 23 24 23 22 22 26 33 36 36 36 35 35 35 34 34 33 32 32 31 30 29 28 27 27 26 25 24 24 24 24 24 24 26 27 26 25 24 23 22 22 22 21 20 20 20 19 18 19 19 18 18 18 17 17 16 16 17 18 18 19 21 21 21 21 22 21 21 21 20 21 22 22 21 21 21 20 19 19 19 19 20 21
23 20 20 23 23 22 21 21 21 21 22 26 31 36 38 37 36 36 35 34 34 34 34 34 33 32 30 29 29 28 27 27 26 26 26 27 27 28 29 29 27 26 26 25 24 23 23 23 24 23 22 21 21 21 21 21 21 21 20 20 19 20 21 21 22 23 23 23 22 21 20 20 19 19 20 20 20 20 20 21 21 20 19 19 18 18 19
27 19 15 19 24 23 21 21 22 22 23 23 25 32 37 38 38 37 36 35 35 34 34 35 35 34 32 31 31 30 29 29 28 28 27 28 28 28 28 28 28 27 27 27 26 25 25 25 26 25 24 23 22 22 22 22 22 22 22 22 22 22 23 23 24 23 23 23 22 21 21 20 20 20 21 22 22 22 21 22 22 21 21 20 18 18 19
24 22 18 19 23 23 21 21 21 21 22 20 19 24 31 35 37 38 38 38 37 36 35 35 34 34 32 32 32 32 31 30 30 30 29 28 27 27 26 26 27 27 27 28 28 28 27 27 27 28 28 26 25 24 23 23 23 23 23 23 23 24 24 25 24 24 23 23 23 22 21 21 20 20 22 24 26 25 24 24 25 24 24 23 22 23 23
18 20 22 21 21 22 21 20 18 18 20 19 17 19 22 26 31 35 37 37 37 37 38 37 36 34 33 33 34 33 33 32 32 32 31 30 29 29 28 28 27 27 27 28 30 30 30 29 29 29 29 30 29 27 26 25 25 25 25 25 24 25 26 26 26 25 24 24 24 23 23 22 21 21 22 24 25 26 27 28 28 27 27 27 27 27 27
18 19 22 22 22 21 20 20 18 16 17 17 16 17 19 20 24 28 31 31 30 31 34 37 37 36 35 34 34 34 34 34 34 34 33 33 33 32 32 32 31 30 29 30 31 31 32 32 31 29 29 31 31 31 30 29 28 28 27 27 26 25 26 26 26 26 26 25 25 25 25 24 24 24 24 24 25 27 28 29 28 28 29 29 29 29 30
21 21 22 22 22 21 21 22 21 18 17 16 15 17 19 19 20 21 23 24 24 24 27 30 32 33 34 34 34 34 35 36 37 37 36 35 35 35 35 35 35 34 32 33 33 33 33 33 31 29 29 28 28 29 31 32 32 31 30 29 28 28 28 28 28 28 27 27 26 26 26 27 27 27 27 26 27 28 29 29 29 30 30 31 31 32 32
21 22 21 20 19 18 19 21 21 20 19 18 17 17 18 19 19 19 19 19 21 22 23 25 27 29 31 32 33 34 36 37 37 37 37 37 37 38 38 38 37 36 35 35 35 34 33 32 31 31 31 29 27 27 29 31 33 34 33 32 31 31 31 31 30 29 28 27 26 26 27 27 28 29 29 30 30 30 30 31 31 32 33 33 33 34 34
21 20 18 17 16 15 16 16 18 19 19 18 18 18 18 18 18 17 17 16 17 19 21 22 24 27 29 30 32 34 36 36 36 36 36 36 37 38 38 37 36 36 36 37 36 35 33 32 32 33 33 32 30 29 29 29 32 34 36 36 35 34 34 33 32 31 30 29 29 28 28 28 28 29 30 31 31 32 32 33 34 35 35 35 35 35 36
22 18 15 15 14 14 13 12 13 15 16 16 18 19 19 18 17 16 16 15 15 16 18 21 24 26 28 29 31 31 30 31 33 33 32 33 35 36 36 34 33 32 33 34 34 33 32 33 33 33 33 31 30 29 29 29 30 32 34 36 36 36 35 34 34 33 32 31 30 30 30 30 30 30 31 32 32 33 34 35 36 37 38 39 39 39 39
18 15 13 14 14 13 13 12 12 13 14 14 16 17 18 18 18 17 16 16 16 16 18 20 23 24 25 27 28 26 24 26 29 29 27 26 28 30 31 32 32 32 33 34 34 33 34 34 34 33 32 31 30 30 30 29 29 29 31 32 33 33 34 34 35 35 34 33 31 31 31 31 31 31 31 32 32 33 34 35 36 37 38 40 40 40 39
15 14 13 15 15 15 15 14 14 14 14 15 16 17 17 17 17 18 18 18 18 19 20 21 22 23 23 25 26 25 24 25 27 28 27 26 25 25 26 29 31 32 33 34 34 34 34 34 33 32 32 31 31 31 31 30 29 29 30 30 30 30 30 31 32 34 34 33 32 32 32 32 32 32 32 32 33 34 34 35 36 37 38 39 39 39 39
13 13 12 12 13 13 13 14 14 14 15 16 16 17 17 18 19 19 20 21 22 23 23 24 24 25 25 26 26 27 27 27 28 29 30 30 29 28 27 27 28 29 29 30 31 30 30 30 30 29 29 29 29 30 30 29 30 30 31 31 31 31 31 31 32 33 33 34 33 33 33 33 33 33 34 34 35 35 35 36 37 37 38 39 40 41 42
12 12 11 10 10 11 11 12 12 13 14 15 16 17 17 19 20 21 22 22 23 24 25 26 27 28 28 28 28 28 29 30 30 31 31 32 32 31 30 28 28 27 27 27 28 28 28 28 28 27 27 28 28 28 28 29 29 30 31 31 31 31 31 31 32 32 33 33 33 32 32 33 33 34 35 35 36 36 37 37 38 39 40 41 42 43 44
12 12 12 12 12 12 12 12 13 13 14 15 16 17 18 19 20 22 23 24 25 26 27 28 29 29 30 31 31 31 32 32 33 33 33 33 33 32 32 30 29 28 27 27 26 26 27 27 27 27 27 27 28 28 28 28 29 29 30 30 31 31 31 31 32 32 32 32 32 33 33 34 34 35 36 36 37 37 38 39 40 41 42 43 44 45 46
10 11 11 12 12 13 13 14 14 15 16 17 18 18 19 20 21 22 23 24 26 28 29 30 30 31 32 34 34 35 35 35 35 34 34 34 34 34 34 33 31 31 30 29 28 28 27 27 27 28 27 28 28 28 28 28 29 29 30 30 31 31 32 32 33 33 33 34 34 35 35 36 36 37 37 38 39 40 41 42 43 44 45 46 47 48 49
9 10 11 11 12 13 13 14 15 16 17 18 18 19 19 19 20 21 23 25 27 29 31 32 32 33 34 36 37 38 38 38 37 36 35 35 36 36 35 34 34 33 32 32 31 31 30 29 29 29 29 29 29 29 29 30 30 31 31 32 32 33 33 34 34 35 35 36 37 37 38 38 39 40 41 41 42 43 44 44 45 46 47 48 49 50 51
8 8 9 10 11 12 13 14 15 16 17 18 19 19 20 20 21 23 25 26 27 28 29 30 30 31 31 33 35 37 37 37 36 35 35 36 36 36 36 35 35 34 34 33 33 32 32 31 31 31 31 31 31 32 32 32 33 33 34 35 35 36 36 37 37 37 37 38 38 39 39 40 41 41 42 42 43 44 45 46 46 47 48 50 51 52 53
8 9 10 11 12 12 13 14 15 16 17 18 19 21 22 23 24 25 26 27 26 26 26 26 27 27 27 28 29 30 30 30 30 30 32 32 33 34 34 33 33 33 33 33 33 33 32 32 32 32 32 32 32 33 33 34 35 35 36 36 37 37 37 38 38 38 38 38 39 39 40 40 41 42 43 43 44 45 46 46 47 48 49 50 51 52 52
3 4 6 8 9 11 12 13 15 16 17 19 20 22 24 25 27 29 31 32 32 32 31 31 30 30 29 29 29 29 29 29 30 30 30 31 31 32 32 32 32 32 32 32 32 32 32 32 32 32 32 32 33 33 34 34 35 36 36 36 37 37 37 37 38 38 38 39 39 40 40 41 42 42 43 44 44 45 45 46 46 47 47 48 48 49 49
5 4 3 1 1 3 4 5 7 9 11 13 16 18 21 23 27 30 33 35 36 37 38 37 37 37 37 36 36 36 35 35 36 36 36 36 35 35 34 34 34 34 34 34 33 33 33 33 33 34 34 35 35 35 36 36 36 36 36 37 37 38 38 38 38 39 39 39 39 39 40 40 41 41 42 42 43 43 43 44 45 45 45 46 46 46 46
5 4 3 2 1 1 1 2 3 5 7 8 10 12 14 17 20 24 28 32 36 38 39 40 40 41 41 41 41 42 42 41 41 41 41 41 41 40 39 38 38 38 37 37 37 37 37 37 37 38 38 38 38 38 39 39 39 39 39 39 39 39 39 38 38 38 37 37 37 37 38 38 39 39 40 40 41 41 41 42 42 42 42 43 43 43 43
3 2 1 1 1 2 3 4 5 7 8 9 11 12 13 15 16 18 21 24 29 34 37 38 40 41 41 41 41 41 41 41 42 42 42 43 42 42 41 41 41 41 40 40 40 40 40 40 40 40 40 41 41 41 41 41 41 40 40 40 39 39 38 37 36 36 36 36 36 36 37 37 38 38 38 39 39 39 39 39 40 40 40 40 40 40 40
1 0 0 1 2 3 4 5 6 8 9 10 12 13 14 16 17 18 18 19 21 24 28 31 34 36 38 39 40 39 39 39 40 40 40 41 41 41 40 40 40 40 40 40 40 41 41 40 40 41 41 41 40 40 40 40 40 39 39 38 37 36 36 35 35 35 35 35 35 35 36 36 36 37 37 37 37 38 38 38 38 38 38 38 37 37 37
1 1 1 2 3 3 4 5 6 8 9 10 11 13 14 15 17 18 18 19 19 19 21 23 25 27 30 32 34 35 36 37 37 37 38 38 38 38 38 37 37 37 37 37 37 38 38 38 38 38 38 38 37 37 37 36 36 35 35 35 34 34 34 34 34 34 34 34 34 34 34 35 35 35 35 35 36 36 35 35 35 35 35 34 34 33 33
0 1 2 3 4 4 5 6 7 8 9 10 11 12 14 15 16 17 18 19 19 19 19 20 21 22 23 25 27 28 30 31 32 33 33 34 34 35 35 34 34 34 34 34 34 34 34 34 34 34 34 34 33 33 33 33 33 32 32 32 32 33 33 33 33 33 33 33 33 33 33 33 33 33 33 33 33 33 33 33 32 32 31 30 30 30 29
2 3 3 4 5 5 6 7 8 9 9 10 11 12 13 14 16 16 17 18 19 19 18 18 19 20 21 21 22 23 25 26 27 29 29 30 30 30 31 31 31 31 31 31 31 31 31 31 31 31 31 31 31 31 31 31 31 31 32 32 32 33 33 32 32 32 32 32 31 31 31 31 31 31 31 31 31 30 30 30 29 28 28 27 27 26 26
3 4 4 5 6 6 6 7 8 9 10 10 11 12 13 14 15 16 17 18 19 19 19 18 17 18 19 20 20 21 22 23 24 25 26 27 27 27 27 28 28 28 28 29 29 29 29 29 29 29 29 30 30 30 30 30 31 31 31 32 32 32 32 31 31 30 30 30 29 29 29 29 28 28 29 29 28 28 27 27 26 25 25 24 23 23 23
3 4 4 5 6 6 7 7 8 9 10 10 11 12 13 14 15 16 17 18 18 19 20 19 18 17 17 18 19 20 20 21 22 23 24 25 26 26 26 26 26 26 26 27 27 27 27 28 28 28 29 29 29 29 30 30 30 30 30 30 30 30 30 29 29 29 28 28 27 27 27 27 27 27 27 27 26 26 25 24 23 22 22 21 21 21 21
4 4 5 5 6 6 7 8 9 9 10 11 11 12 13 14 15 15 16 17 18 19 20 20 19 17 16 16 16 17 18 19 19 20 21 22 23 24 25 25 25 25 25 25 25 25 26 26 26 27 27 28 28 28 29 29 29 29 29 29 29 29 28 28 27 27 26 26 26 25 25 25 25 25 25 25 24 23 22 21 21 20 20 20 20 20 20
4 5 5 6 6 6 7 8 9 10 10 11 12 12 13 14 14 15 16 16 17 18 19 20 20 19 17 15 15 15 16 17 18 18 19 20 21 22 23 24 24 24 24 24 24 25 25 25 25 26 26 27 27 28 28 28 28 28 28 28 27 27 26 26 26 25 25 24 24 24 25 24 24 24 24 23 22 21 20 19 19 19 19 19 19 19 20
5 5 6 6 6 7 8 9 9 10 11 12 12 13 14 14 14 15 15 16 16 17 18 19 20 19 18 16 14 14 14 15 16 17 18 18 19 20 21 22 22 23 24 24 24 24 25 25 25 25 26 26 26 27 27 27 27 26 26 26 26 25 25 25 24 24 24 24 24 24 24 24 24 23 22 22 21 20 19 18 18 19 19 19 19 19 19
5 5 6 6 7 8 8 9 10 11 11 12 12 13 14 15 15 15 15 15 16 17 17 18 19 19 19 17 15 14 13 13 15 16 17 18 18 18 19 19 20 21 22 23 23 24 24 24 24 25 25 25 25 25 25 25 25 25 25 25 25 24 24 24 24 24 24 24 24 24 24 24 23 23 22 22 21 20 19 19 19 19 19 19 19 19 18
5 6 6 7 7 8 8 9 10 11 11 12 13 13 14 14 15 15 15 15 15 15 16 16 17 18 18 18 16 15 14 13 13 14 16 17 18 18 18 18 19 20 21 21 22 22 22 23 23 23 23 24 24 24 24 24 24 24 24 24 24 24 24 24 24 25 25 25 25 25 24 24 23 23 22 22 22 21 20 20 20 19 19 19 19 18 18
5 6 6 7 7 8 9 9 10 11 11 12 13 14 14 14 15 15 16 15 15 15 16 16 16 17 17 17 16 16 15 14 13 13 13 15 17 18 19 19 19 19 20 20 21 21 21 21 22 22 23 23 23 24 24 24 24 24 24 24 24 24 24 25 25 25 25 25 25 25 25 24 23 23 23 23 22 22 21 21 20 20 19 19 19 19 19
6 6 7 8 8 9 9 10 10 11 12 13 13 14 15 15 15 15 16 16 16 16 16 17 16 16 16 16 16 16 15 15 14 13 13 13 14 16 17 18 19 19 20 21 21 21 21 21 21 22 22 23 23 23 24 24 24 25 25 25 25 25 25 25 26 26 26 26 25 25 25 24 24 24 23 23 22 22 22 22 21 21 20 19 19 20 20
7 8 9 10 10 11 11 11 12 13 14 14 14 14 15 16 16 16 17 17 17 16 17 17 17 16 16 16 16 16 15 15 14 13 13 13 14 15 15 16 17 19 20 21 21 22 22 22 22 22 22 23 23 23 24 24 24 24 25 25 26 26 26 26 26 26 26 26 26 25 25 25 24 24 23 23 22 22 22 22 22 21 20 20 20 20 20
10 11 12 12 13 13 14 14 14 15 15 15 16 16 16 17 17 17 18 18 18 17 17 17 17 17 17 16 16 16 15 15 15 14 14 13 14 14 15 15 16 17 18 19 20 21 22 22 23 23 23 23 23 23 23 24 24 24 24 25 25 26 26 26 26 26 26 26 26 26 25 25 24 24 23 22 22 22 23 23 23 22 21 21 21 20 20
12 13 13 14 14 15 15 16 16 16 16 17 18 18 18 18 19 19 19 19 19 19 19 19 19 18 18 18 18 17 17 16 16 15 15 15 15 15 15 15 16 17 17 18 18 19 20 21 22 22 23 23 23 23 23 23 23 23 23 24 24 25 25 25 25 26 26 26 26 26 25 25 25 24 23 23 23 23 24 24 23 23 22 22 21 21 21
12 13 13 14 14 15 16 17 17 18 18 19 19 19 19 20 20 20 20 20 20 20 20 20 20 19 19 19 19 19 19 18 18 17 16 15 16 16 16 16 16 17 17 17 18 18 19 19 20 21 22 22 22 23 23 23 23 22 22 23 23 24 24 25 25 25 26 26 26 26 26 26 25 25 24 24 24 24 25 25 24 23 23 22 22 21 21
12 12 13 14 15 15 16 17 17 18 19 19 20 20 21 21 22 22 22 22 22 22 22 22 22 21 20 20 20 20 20 20 20 20 18 17 17 17 17 17 17 17 18 18 18 18 19 19 20 20 21 21 21 21 22 22 22 22 22 22 23 23 24 24 25 25 25 26 26 27 27 27 26 25 25 25 25 25 26 26 25 24 23 23 22 22 21
11 12 13 14 15 16 17 17 18 18 19 19 20 21 21 22 23 23 23 23 23 22 22 23 24 24 23 22 21 21 21 21 22 22 21 20 20 19 19 18 18 18 18 18 18 18 19 19 19 20 20 20 21 21 21 21 22 22 23 23 23 24 24 25 25 25 25 25 25 26 27 27 27 27 26 26 26 26 27 26 26 25 24 24 23 22 22
11 12 13 14 15 16 17 17 18 19 19 20 20 20 21 22 23 24 24 24 24 23 23 24 25 25 25 24 22 22 22 22 22 23 23 23 22 22 21 21 20 19 19 19 18 18 18 19 19 19 20 20 20 20 21 21 21 22 22 23 23 24 25 26 27 27 27 26 26 26 27 28 29 28 28 27 27 27 27 27 26 25 25 24 24 23 22
12 13 14 15 16 16 17 18 19 20 20 21 21 21 22 22 23 24 24 25 25 25 24 24 25 26 26 25 24 24 24 24 24 24 25 25 25 25 24 24 23 22 21 20 19 19 18 18 18 19 19 20 20 20 20 21 21 21 22 22 23 24 25 26 27 27 28 28 28 28 28 28 28 29 28 27 27 28 28 27 27 26 26 25 24 24 23
Wind_Direction
233 231 229 231 235 236 232 232 234 234 234 234 232 231 234 238 239 241 244 245 247 244 237 232 228 228 230 229 227 226 227 229 232 233 235 239 243 248 252 255 259 260 262 262 259 255 254 255 257 258 258 258 261 265 267 260 250 244 240 240 243 243 242 242 244 246 243 237 234 236 239 240 241 241 240 240 241 243 244 245 246 247 248 250 251 250 249
231 231 231 233 235 236 235 236 239 238 236 236 234 232 234 238 241 245 248 250 256 255 240 231 230 229 231 231 229 230 229 228 229 231 233 237 241 242 244 247 251 255 258 257 255 255 257 259 261 263 262 261 262 267 268 259 248 243 241 241 242 242 242 244 247 247 243 237 236 239 240 241 241 241 240 240 242 243 245 247 247 247 248 249 250 249 247
232 231 231 232 235 238 239 239 240 239 236 236 235 234 236 239 241 245 250 253 254 251 241 237 238 237 238 238 235 235 234 230 229 231 232 235 238 238 238 242 246 249 251 253 254 257 259 260 263 265 263 261 260 263 263 255 247 243 239 237 239 241 242 245 246 244 240 237 237 239 240 241 242 242 243 243 244 246 248 249 249 248 247 247 247 247 249
234 234 233 234 237 241 243 240 238 238 237 235 234 235 237 240 243 246 249 250 250 248 245 242 241 241 243 244 240 240 240 233 227 228 231 234 237 239 239 241 244 246 249 252 253 256 258 258 258 260 258 255 255 258 256 248 242 239 235 233 237 240 241 242 240 237 238 240 240 241 242 242 243 245 247 247 246 248 250 252 253 253 251 249 246 246 249
236 235 233 235 238 241 244 242 238 238 239 236 234 234 236 239 244 247 247 247 248 249 247 242 239 240 243 245 244 245 245 239 230 226 229 233 236 239 241 242 244 246 250 253 254 256 256 254 253 253 251 247 247 251 248 239 235 234 233 235 239 240 240 239 234 233 237 240 240 242 243 242 245 251 254 254 252 249 250 253 255 256 256 254 250 248 250
238 235 233 236 239 242 245 245 240 238 239 238 235 234 235 237 242 245 246 247 247 248 247 245 242 240 241 245 247 249 249 245 237 230 230 234 236 238 241 243 246 249 252 255 258 258 253 247 243 242 241 239 239 240 237 232 232 232 231 232 235 236 239 239 234 232 236 238 237 239 238 239 246 252 257 262 260 253 253 256 257 257 256 254 253 255 257
234 234 234 235 237 239 242 243 239 235 236 237 237 235 234 236 238 242 244 246 245 245 247 246 244 242 242 244 247 249 249 246 241 237 235 235 237 240 242 243 246 250 253 255 255 254 247 240 234 230 231 235 236 237 236 235 235 234 231 231 229 227 232 235 233 231 234 236 236 238 239 240 245 251 256 261 260 256 257 260 261 258 254 250 251 255 256
219 223 227 230 231 232 233 233 234 232 232 233 235 235 233 234 236 239 241 243 243 243 244 245 244 244 243 243 245 247 247 245 243 242 240 238 239 241 244 245 247 249 252 253 252 248 241 235 231 231 235 241 245 245 243 241 242 241 238 238 236 228 225 228 229 231 235 238 243 248 248 247 247 251 256 259 259 258 260 262 262 259 253 251 253 254 254
219 222 225 227 226 226 227 228 228 229 230 231 232 233 233 234 234 236 239 241 241 241 241 242 243 243 243 244 244 244 244 243 243 244 244 242 240 242 244 246 248 249 249 249 249 248 245 241 240 244 248 251 252 252 250 247 248 249 247 246 245 240 235 235 236 237 239 242 246 250 250 248 247 248 252 256 259 259 259 259 260 260 261 262 261 257 254
225 224 224 224 222 225 230 229 225 225 229 231 232 232 232 232 233 234 237 239 239 239 240 241 242 242 241 242 242 242 243 243 243 245 246 245 242 241 242 244 245 247 249 249 249 250 250 249 250 252 254 254 254 254 253 252 251 252 253 251 249 246 244 244 244 243 243 242 242 244 245 245 245 243 245 251 256 259 261 262 262 263 266 267 264 257 251
217 215 219 223 226 232 238 235 230 229 231 235 236 234 232 231 231 233 235 236 237 238 238 239 239 240 239 239 241 242 242 244 246 245 247 249 245 238 238 241 244 246 248 250 250 251 251 252 253 254 255 254 253 253 254 254 253 252 252 252 251 249 247 246 245 244 244 242 241 240 241 242 240 239 238 241 246 252 258 262 264 265 264 262 260 256 253
212 218 228 233 233 235 235 234 234 235 237 240 239 235 234 233 233 234 235 236 236 236 237 238 239 239 239 238 239 240 240 243 246 246 246 249 245 238 237 241 244 245 248 250 251 251 252 252 251 252 254 253 252 253 254 254 254 252 251 250 248 248 247 246 245 243 243 243 243 243 243 242 241 240 238 239 243 246 247 251 255 258 257 255 254 254 255
209 221 231 236 233 229 226 227 229 233 238 239 234 231 234 235 233 233 235 238 237 235 234 236 236 237 237 237 238 240 240 240 242 243 244 244 243 240 241 243 244 245 247 249 250 250 251 252 251 251 253 253 252 253 254 254 253 252 251 249 246 245 245 245 245 245 245 246 247 248 248 248 248 247 246 245 246 245 245 246 248 250 251 252 253 255 257
217 228 233 231 228 225 223 221 220 224 231 233 228 226 227 229 230 231 233 237 239 235 233 234 234 233 235 237 238 240 241 241 240 240 241 242 242 242 243 244 245 247 248 249 250 250 251 252 253 252 251 252 253 253 254 254 254 251 250 249 247 245 244 244 246 247 247 248 250 251 253 254 254 253 252 250 250 250 250 250 251 252 254 255 256 257 258
225 234 234 231 231 230 227 224 223 225 228 226 221 219 218 220 224 226 228 231 232 231 230 230 230 229 231 234 238 239 240 240 240 238 236 237 239 242 244 244 244 245 247 248 249 249 250 253 254 252 250 250 252 254 255 255 255 253 251 250 249 248 247 248 250 250 249 249 250 251 252 254 255 255 254 253 254 255 255 255 255 256 256 257 258 259 260
228 229 227 226 228 228 226 225 225 228 231 229 225 221 218 217 219 222 224 226 227 227 227 225 225 226 228 230 233 235 237 240 243 243 239 236 236 238 241 243 245 247 249 248 248 248 249 251 251 249 249 250 252 256 258 258 257 255 253 251 250 249 249 250 251 251 250 250 252 252 252 252 253 254 254 255 257 258 259 259 260 260 260 261 262 263 265
216 213 216 218 217 215 215 216 218 222 227 229 228 228 225 220 219 221 223 223 223 225 226 224 224 226 230 232 233 235 237 237 238 241 241 240 239 240 241 243 246 248 250 250 249 250 252 253 251 249 250 253 255 258 260 260 259 257 255 253 253 252 250 249 247 247 249 252 255 256 257 256 256 255 256 257 258 260 261 263 265 266 267 268 268 270 271
203 204 211 211 206 202 200 202 207 213 219 222 225 228 228 224 222 223 223 223 223 224 224 223 222 224 228 232 233 235 233 228 225 228 229 231 235 241 245 248 248 248 248 249 249 250 251 253 253 252 251 251 251 252 252 252 253 253 252 251 250 249 247 246 245 246 250 255 258 259 260 260 259 259 258 259 259 261 262 264 266 267 268 269 270 272 273
207 210 212 209 206 204 205 209 212 214 218 220 222 225 226 225 227 228 229 229 230 230 230 228 227 227 227 228 230 231 226 221 219 219 216 215 221 228 234 239 242 243 243 244 245 245 244 243 243 246 247 247 246 246 247 249 250 251 251 250 248 245 243 242 243 247 252 256 259 260 262 262 261 261 261 261 261 262 263 265 267 268 269 270 272 274 274
215 215 213 212 213 215 218 221 222 222 224 226 226 227 226 226 229 234 237 238 237 236 237 238 238 239 237 234 235 237 235 230 227 224 220 220 225 228 230 232 234 236 236 238 239 240 240 239 238 240 242 243 244 246 250 254 256 257 257 257 256 254 251 249 249 252 255 258 260 261 262 262 263 264 265 266 266 266 267 268 269 270 271 272 273 274 275
203 203 204 206 208 212 217 222 224 226 228 230 231 232 229 226 227 231 235 238 239 238 238 239 241 243 243 243 243 245 246 245 244 242 239 238 241 245 247 246 245 244 242 242 242 243 244 244 244 244 244 245 245 247 251 254 256 258 259 260 259 259 258 256 256 256 257 258 260 261 262 262 264 265 266 267 268 269 269 270 271 271 272 273 274 275 276
205 206 208 209 212 217 219 222 224 226 229 232 234 235 233 231 231 232 233 236 239 239 239 239 241 244 246 248 248 249 250 250 251 252 252 252 252 254 255 254 253 252 250 248 248 248 247 248 248 247 246 246 247 248 249 250 251 253 255 257 258 258 257 257 256 256 257 258 259 260 261 262 263 264 265 266 268 269 270 271 272 273 274 275 276 277 277
215 218 220 223 226 229 231 234 236 236 235 235 236 237 238 238 238 238 240 242 243 244 243 241 241 244 246 249 250 250 250 251 252 253 254 255 256 257 258 257 256 255 254 252 251 249 249 249 250 249 248 248 249 249 250 250 251 253 254 255 257 257 258 258 258 257 258 259 259 260 262 263 264 266 267 268 269 270 271 273 274 275 275 276 277 277 278
217 220 224 226 229 232 235 237 238 239 240 241 240 240 241 242 242 242 244 246 247 248 247 246 245 245 247 249 251 250 249 249 250 252 253 254 254 255 256 257 258 258 257 257 256 254 253 252 252 253 253 253 254 254 255 255 256 256 256 257 257 258 258 259 259 260 260 261 262 263 264 265 266 267 268 269 270 271 272 273 274 275 275 276 277 277 278
219 222 225 229 233 236 239 239 239 239 239 241 242 242 240 239 242 245 246 247 248 249 250 250 249 249 248 249 250 251 251 251 251 252 253 253 254 254 255 256 256 257 257 257 257 257 257 256 256 256 257 257 258 258 258 258 258 258 258 258 258 258 259 260 260 261 262 263 264 265 265 266 267 268 269 270 271 272 272 273 274 274 275 275 276 276 277
227 229 233 237 239 241 243 244 244 244 243 242 243 243 240 236 238 243 245 245 245 246 248 248 248 247 246 247 248 251 253 254 254 254 254 253 254 253 253 253 254 254 254 255 255 255 256 256 257 257 257 258 258 259 258 258 259 259 259 259 260 260 260 261 262 262 263 264 265 266 266 267 268 269 269 270 271 272 273 273 274 274 275 276 276 277 277
238 242 244 246 247 248 249 249 249 249 248 247 246 246 244 241 240 243 245 243 241 241 242 243 244 244 243 243 245 247 249 250 250 250 251 252 253 254 254 254 254 254 254 254 254 253 253 253 254 255 255 256 257 257 258 258 259 259 260 260 261 261 262 263 263 264 264 265 266 266 267 268 269 270 270 271 271 272 273 274 275 275 276 277 278 278 278
215 236 244 247 250 253 255 256 257 256 256 255 254 253 252 251 249 250 251 252 251 250 249 248 247 245 244 243 242 243 244 245 246 247 248 249 250 252 253 254 254 254 255 255 255 255 254 254 254 255 255 256 257 258 259 260 261 261 261 262 262 262 263 263 264 265 265 266 267 268 269 270 270 271 271 272 273 273 274 275 275 276 276 277 277 278 278
104 102 103 129 223 253 260 263 264 264 263 263 263 262 261 260 258 257 257 259 260 260 260 259 257 255 254 252 251 250 251 251 252 253 254 255 255 255 255 254 254 254 255 255 255 256 256 257 258 259 260 260 261 262 263 264 264 264 265 265 266 266 267 268 268 269 269 270 270 271 271 271 272 272 272 273 274 274 275 275 276 276 276 277 276 277 277
97 94 90 89 81 357 315 292 285 283 281 280 281 282 280 278 274 269 265 263 262 262 262 263 263 262 262 260 259 259 259 258 258 258 259 259 260 260 259 259 259 259 259 259 258 258 259 259 261 262 263 264 265 266 267 268 269 270 270 271 271 272 272 272 272 272 272 272 271 271 271 272 272 273 274 274 275 275 276 276 277 277 277 277 277 277 276
92 86 67 13 321 309 305 301 299 299 299 298 298 300 301 302 300 295 286 277 269 265 264 263 263 263 263 263 262 262 261 260 260 259 259 259 260 260 260 260 261 261 261 262 262 261 261 262 262 263 264 265 266 267 268 269 270 271 272 272 272 272 272 271 270 270 270 270 270 271 271 272 273 274 275 275 276 276 277 277 278 278 278 278 278 278 277
110 107 309 309 306 301 301 304 304 304 305 305 306 307 308 310 312 314 313 305 291 279 271 268 266 265 264 263 263 262 262 261 260 259 259 258 258 258 259 259 260 260 260 260 261 261 261 261 262 263 263 264 265 266 266 267 267 268 268 268 268 267 266 266 266 267 267 268 269 271 271 273 274 274 275 276 276 277 277 278 278 278 279 279 279 279 279
173 246 279 290 297 299 301 305 306 308 309 310 311 311 312 313 316 320 324 324 316 302 288 280 276 273 269 267 265 264 263 262 261 260 260 260 259 259 259 258 258 258 259 259 259 259 259 259 260 260 261 261 262 262 262 263 263 263 263 263 263 263 263 264 264 265 267 268 269 270 271 273 274 274 274 275 276 277 278 279 279 279 280 280 281 281 281
288 289 292 295 298 301 305 307 309 311 313 315 316 317 317 318 320 323 327 330 330 322 308 295 287 283 280 277 273 269 266 264 263 261 260 260 260 259 259 259 258 258 257 257 257 257 257 256 256 256 257 257 258 258 259 259 259 260 260 260 261 261 262 263 264 265 267 268 269 270 270 271 272 273 274 275 276 278 279 280 280 281 281 282 282 282 283
326 310 306 305 305 305 308 310 311 313 316 319 321 323 323 324 326 328 331 334 336 334 325 311 298 290 287 285 282 278 274 270 267 264 262 260 259 258 258 258 257 257 257 256 256 256 255 255 255 255 255 255 255 256 256 257 257 258 258 259 260 261 262 263 263 264 265 266 267 268 268 269 271 272 274 275 277 279 280 280 281 281 281 282 282 282 282
323 314 310 308 308 309 312 312 312 315 319 322 325 326 327 328 329 332 334 338 340 341 338 329 314 300 291 286 284 282 279 275 272 269 265 261 259 257 256 255 255 255 255 255 255 255 254 254 254 254 254 254 255 255 255 255 256 256 257 258 258 259 260 261 261 262 263 263 264 265 266 268 270 272 273 275 277 278 279 279 279 280 280 279 279 279 279
321 316 312 310 310 313 316 316 316 318 321 324 327 329 329 329 332 334 338 341 344 346 345 341 332 319 303 291 284 280 279 277 275 272 269 265 261 258 256 254 253 253 252 253 253 253 253 253 253 253 253 254 254 254 254 255 255 255 256 257 257 258 258 259 259 260 260 261 262 264 265 267 269 270 272 273 275 276 276 276 276 276 276 275 275 276 277
324 320 317 316 316 319 320 320 320 322 324 327 330 330 330 330 333 336 340 344 347 349 349 348 343 335 322 307 293 283 278 276 275 274 272 269 265 261 258 256 255 254 254 253 253 253 253 253 253 253 253 253 253 254 254 254 255 255 256 256 256 256 256 257 257 258 259 260 261 263 264 266 267 268 269 270 272 272 272 272 272 272 272 272 272 273 275
326 324 324 325 325 326 326 325 324 325 327 330 331 331 330 331 334 337 340 344 348 350 352 351 349 344 337 327 313 297 284 277 275 274 274 272 269 266 264 261 259 259 258 258 257 256 255 255 255 254 254 255 255 254 254 254 255 255 255 255 255 255 255 256 257 258 259 260 261 262 263 264 265 265 265 266 267 267 267 267 268 268 268 269 270 271 272
325 325 327 330 331 332 331 329 328 329 330 331 332 331 330 331 335 337 339 342 345 349 352 353 353 351 347 340 330 318 301 287 278 274 274 274 272 270 268 266 264 262 262 261 261 260 259 258 257 257 256 256 255 255 255 254 254 254 254 254 254 255 255 257 258 258 259 259 260 261 261 262 262 261 261 261 261 261 262 263 263 264 264 266 267 269 272
326 328 331 335 337 338 335 332 332 333 333 333 334 333 331 332 334 336 337 340 343 346 349 351 353 353 352 349 343 336 324 307 290 280 275 274 273 272 270 268 266 264 263 262 261 260 259 259 258 257 256 255 254 254 254 254 254 254 254 255 255 256 256 257 257 258 258 258 258 258 258 258 258 257 257 256 256 257 258 259 259 259 260 263 266 268 271
331 335 339 342 344 342 339 335 335 337 335 334 334 334 333 332 332 333 334 336 339 341 344 347 350 352 352 352 349 345 339 329 314 297 284 278 276 274 273 270 267 265 263 262 261 260 258 257 257 256 255 255 254 254 254 254 254 255 255 256 256 257 257 257 257 258 258 257 256 255 254 254 254 254 254 254 254 254 255 255 254 254 257 261 265 267 271
344 348 353 356 353 349 345 342 341 339 336 335 336 336 335 333 332 331 332 333 335 336 338 342 346 348 348 349 349 347 344 340 333 320 305 292 284 279 276 274 271 269 266 264 263 261 260 258 257 256 256 256 255 256 256 256 256 257 257 257 257 257 257 257 257 257 256 255 254 253 251 250 251 252 253 253 253 253 253 251 249 250 254 260 264 268 272
3 8 11 10 5 0 355 351 348 345 342 341 342 341 338 336 334 331 330 331 332 332 333 336 339 341 341 343 344 345 344 341 336 332 325 314 301 291 284 279 276 274 272 270 267 265 263 262 260 259 258 258 258 258 258 259 259 260 260 259 258 258 257 256 256 255 254 253 251 250 249 248 249 251 252 253 253 253 252 249 246 246 251 258 264 268 273
22 22 21 18 13 9 4 0 357 353 350 349 348 345 341 338 336 334 332 331 330 329 328 329 330 331 333 335 337 338 338 337 334 332 330 323 314 306 300 293 285 281 278 275 272 270 268 267 266 265 264 263 263 262 261 260 260 260 260 260 259 258 257 255 255 253 252 250 248 247 246 247 248 250 252 253 253 252 250 247 244 245 249 255 261 266 272
32 29 25 20 16 11 8 5 3 359 355 352 351 348 345 341 339 338 335 333 331 329 327 326 325 324 325 327 328 329 330 330 329 328 327 323 318 313 310 304 297 291 287 283 279 275 272 270 269 268 267 266 266 265 263 262 261 260 259 259 259 258 257 256 255 253 251 248 246 245 245 247 248 251 253 254 253 251 248 245 243 244 249 254 259 265 270
34 29 25 21 16 12 9 6 4 1 357 354 352 350 347 344 342 340 338 335 333 330 327 325 323 322 321 320 321 322 322 322 322 322 322 320 317 315 312 308 303 298 294 290 285 281 276 273 271 270 269 268 267 266 264 263 261 260 259 259 258 258 258 256 254 252 250 248 247 246 245 246 248 249 251 252 252 250 246 243 242 244 249 254 259 263 268
33 29 25 20 16 13 9 5 2 359 356 353 351 350 347 344 341 340 338 336 334 332 328 325 323 321 318 316 316 316 316 315 315 315 315 313 311 309 308 307 305 301 297 293 289 285 281 277 273 271 270 269 268 267 266 264 263 261 260 259 259 258 258 256 254 252 250 248 247 247 246 246 247 249 250 250 249 247 244 242 242 245 249 254 258 261 265
34 30 25 21 17 14 11 6 1 358 355 351 349 347 345 342 340 339 337 335 334 331 328 325 324 322 320 316 313 311 310 310 309 309 309 307 305 303 303 303 303 301 299 296 293 289 285 282 279 275 272 270 268 267 266 265 264 263 261 259 258 258 257 256 255 253 251 250 248 248 248 248 247 248 248 247 246 244 243 242 242 245 249 253 256 259 262
27 22 18 15 12 11 9 5 0 357 355 351 348 345 342 340 338 337 336 334 332 330 326 324 323 322 321 318 314 310 307 305 304 304 304 303 301 301 301 300 300 299 299 298 296 293 289 286 283 280 277 275 272 270 267 265 264 264 262 260 258 256 255 254 253 252 250 250 249 249 249 248 247 246 246 244 242 241 240 240 242 246 249 252 254 257 260
12 9 6 4 2 2 1 360 358 356 353 351 348 343 340 337 336 334 333 332 330 328 325 323 322 321 321 320 316 311 306 303 301 300 299 299 298 297 297 297 297 297 297 297 297 295 293 289 286 283 280 278 276 274 272 269 267 265 263 261 259 257 255 255 254 253 251 250 250 251 250 248 246 244 243 240 238 237 237 239 242 245 248 250 252 255 257
358 356 355 354 353 353 353 353 353 351 350 349 347 343 339 336 333 331 330 329 328 327 324 322 320 320 320 319 315 310 307 303 301 299 297 295 294 294 294 293 294 295 295 295 294 294 292 291 288 285 282 280 277 276 275 274 272 269 267 265 263 261 258 257 256 255 252 249 249 252 254 252 247 242 239 236 234 234 236 238 241 244 247 249 251 253 255
Height
5673 5675 5678 5680 5682 5683 5684 5684 5685 5687 5689 5691 5692 5693 5693 5694 5696 5697 5697 5699 5703 5704 5705 5706 5707 5709 5710 5710 5712 5712 5713 5713 5714 5715 5716 5717 5718 5719 5720 5720 5721 5721 5723 5724 5725 5725 5724 5723 5723 5723 5724 5725 5725 5726 5727 5728 5729 5731 5733 5734 5734 5734 5735 5736 5738 5739 5740 5742 5744 5745 5746 5747 5748 5749 5750 5750 5751 5752 5754 5755 5756 5756 5757 5757 5758 5758 5759
5670 5672 5675 5677 5679 5679 5680 5681 5682 5684 5686 5687 5688 5689 5690 5691 5693 5693 5693 5697 5701 5703 5704 5705 5706 5707 5708 5709 5710 5711 5711 5712 5713 5714 5715 5716 5717 5718 5718 5718 5719 5719 5720 5721 5722 5722 5722 5722 5721 5720 5721 5722 5722 5723 5723 5724 5725 5727 5729 5731 5731 5731 5732 5733 5734 5735 5737 5738 5740 5742 5743 5744 5746 5747 5747 5748 5749 5750 5751 5752 5753 5753 5754 5754 5755 5756 5757
5667 5669 5671 5673 5674 5675 5676 5677 5679 5681 5683 5684 5685 5686 5688 5688 5689 5689 5692 5695 5698 5700 5701 5702 5703 5705 5706 5707 5708 5709 5710 5710 5711 5712 5713 5714 5715 5716 5716 5717 5717 5718 5719 5719 5719 5720 5720 5720 5719 5719 5719 5719 5720 5720 5721 5721 5722 5723 5725 5727 5728 5728 5729 5730 5731 5732 5734 5736 5738 5739 5740 5742 5743 5744 5745 5745 5746 5747 5748 5749 5750 5751 5751 5752 5752 5753 5754
5664 5667 5668 5669 5671 5671 5672 5673 5676 5678 5679 5681 5683 5685 5686 5685 5685 5687 5690 5693 5696 5698 5699 5700 5702 5703 5704 5705 5706 5707 5708 5708 5709 5710 5711 5712 5713 5714 5715 5715 5716 5717 5717 5718 5718 5718 5718 5718 5718 5717 5717 5717 5718 5719 5719 5719 5720 5721 5722 5724 5725 5725 5726 5727 5728 5729 5731 5733 5735 5737 5737 5739 5740 5741 5742 5743 5744 5744 5745 5746 5747 5747 5748 5749 5750 5751 5752
5660 5663 5665 5666 5667 5668 5667 5669 5673 5675 5676 5678 5680 5682 5683 5683 5682 5684 5687 5691 5694 5695 5696 5698 5700 5701 5702 5703 5704 5705 5706 5707 5708 5709 5709 5710 5711 5712 5713 5713 5714 5715 5716 5716 5716 5716 5716 5716 5716 5716 5715 5716 5716 5717 5717 5718 5718 5719 5720 5721 5722 5722 5723 5724 5726 5727 5728 5731 5733 5734 5734 5736 5737 5738 5739 5739 5740 5741 5741 5743 5743 5744 5745 5746 5747 5748 5749
5656 5658 5661 5662 5663 5663 5663 5666 5669 5671 5672 5674 5676 5678 5680 5680 5680 5681 5685 5688 5691 5692 5694 5696 5697 5699 5700 5701 5702 5703 5704 5705 5706 5707 5708 5708 5709 5710 5711 5711 5712 5713 5714 5714 5714 5714 5714 5714 5714 5714 5714 5714 5715 5715 5715 5716 5717 5718 5718 5719 5719 5720 5721 5722 5723 5725 5726 5728 5730 5731 5732 5733 5734 5735 5736 5736 5737 5737 5738 5739 5740 5741 5742 5743 5744 5745 5745
5652 5655 5657 5657 5658 5660 5661 5663 5665 5667 5668 5670 5672 5675 5677 5677 5678 5679 5682 5685 5687 5689 5691 5693 5695 5697 5698 5699 5700 5701 5702 5703 5704 5705 5706 5707 5707 5708 5708 5709 5710 5711 5711 5712 5712 5713 5712 5712 5712 5713 5713 5713 5714 5714 5714 5715 5716 5716 5717 5717 5717 5718 5719 5720 5721 5723 5724 5726 5727 5728 5729 5731 5732 5733 5733 5733 5734 5735 5735 5736 5737 5738 5739 5740 5741 5741 5742
5650 5652 5653 5654 5655 5657 5658 5660 5661 5662 5664 5666 5668 5671 5673 5674 5675 5677 5679 5681 5684 5686 5688 5690 5692 5693 5695 5696 5697 5698 5699 5701 5702 5702 5703 5705 5705 5706 5706 5707 5708 5709 5709 5710 5710 5711 5711 5711 5711 5712 5712 5712 5713 5713 5714 5714 5715 5715 5716 5716 5717 5717 5718 5718 5719 5721 5722 5723 5724 5725 5727 5728 5729 5731 5731 5731 5732 5733 5733 5734 5735 5735 5736 5737 5738 5738 5739
5649 5651 5651 5652 5654 5655 5655 5656 5658 5659 5660 5662 5664 5666 5669 5671 5672 5674 5676 5678 5680 5682 5684 5686 5688 5690 5692 5693 5694 5695 5697 5698 5699 5700 5701 5702 5703 5703 5703 5704 5705 5706 5707 5707 5708 5708 5709 5710 5710 5710 5710 5711 5711 5712 5712 5713 5714 5714 5715 5715 5716 5716 5717 5718 5718 5719 5720 5721 5722 5723 5724 5726 5727 5729 5729 5729 5729 5730 5731 5731 5732 5733 5734 5735 5735 5736 5736
5647 5648 5649 5650 5651 5652 5652 5654 5655 5656 5658 5659 5660 5662 5664 5666 5669 5671 5673 5675 5677 5679 5681 5682 5684 5686 5688 5690 5691 5692 5694 5695 5696 5697 5698 5699 5700 5700 5701 5701 5702 5703 5704 5705 5705 5706 5706 5707 5708 5708 5708 5709 5709 5710 5710 5711 5712 5713 5713 5714 5714 5715 5716 5716 5717 5718 5718 5719 5721 5721 5722 5723 5725 5726 5727 5727 5727 5727 5728 5729 5729 5730 5731 5732 5732 5733 5733
5645 5646 5646 5647 5647 5648 5650 5651 5652 5654 5655 5656 5658 5659 5660 5662 5665 5667 5670 5672 5673 5675 5677 5678 5680 5682 5685 5686 5688 5690 5691 5692 5693 5694 5695 5696 5696 5697 5698 5698 5699 5701 5701 5702 5703 5703 5703 5704 5705 5705 5706 5707 5707 5708 5708 5709 5710 5710 5711 5712 5712 5713 5714 5714 5715 5715 5716 5717 5718 5719 5720 5721 5722 5723 5724 5725 5724 5725 5725 5726 5726 5727 5728 5729 5729 5730 5730
5642 5644 5644 5643 5644 5645 5647 5649 5650 5651 5652 5653 5655 5656 5657 5659 5662 5664 5666 5668 5670 5672 5673 5675 5677 5679 5681 5683 5685 5686 5688 5689 5690 5691 5692 5692 5693 5694 5695 5696 5697 5698 5698 5699 5699 5700 5701 5701 5702 5702 5703 5704 5705 5705 5706 5706 5707 5708 5709 5709 5710 5711 5711 5712 5713 5713 5714 5715 5716 5716 5717 5718 5719 5720 5721 5721 5722 5722 5723 5723 5723 5724 5724 5725 5726 5727 5727
5639 5641 5641 5640 5641 5643 5644 5646 5647 5648 5649 5650 5652 5653 5655 5657 5658 5660 5662 5664 5666 5668 5670 5672 5674 5676 5678 5679 5680 5682 5684 5685 5686 5687 5688 5689 5690 5691 5692 5693 5694 5694 5695 5696 5696 5697 5697 5698 5698 5699 5700 5701 5702 5702 5703 5704 5705 5705 5706 5707 5708 5708 5709 5710 5710 5711 5712 5712 5713 5714 5715 5715 5716 5717 5717 5718 5719 5719 5719 5719 5720 5721 5721 5722 5723 5723 5724
5636 5637 5638 5638 5639 5640 5642 5644 5645 5646 5648 5649 5650 5651 5653 5654 5655 5657 5659 5661 5663 5665 5666 5668 5670 5672 5674 5675 5677 5678 5679 5681 5682 5683 5684 5685 5686 5687 5688 5689 5690 5691 5692 5692 5693 5693 5694 5694 5695 5697 5697 5697 5698 5699 5700 5701 5702 5702 5703 5704 5705 5706 5706 5707 5708 5708 5709 5710 5710 5711 5711 5712 5712 5713 5714 5714 5715 5716 5716 5716 5717 5717 5718 5719 5719 5720 5720
5633 5634 5635 5636 5637 5638 5640 5642 5643 5645 5646 5647 5648 5650 5651 5652 5654 5655 5657 5658 5660 5661 5663 5664 5666 5669 5671 5672 5673 5674 5675 5676 5677 5678 5679 5681 5682 5683 5684 5685 5686 5687 5688 5689 5689 5690 5691 5691 5692 5693 5694 5694 5695 5696 5696 5697 5698 5699 5700 5701 5702 5703 5703 5704 5705 5705 5706 5707 5707 5708 5708 5708 5709 5710 5710 5710 5711 5711 5712 5713 5713 5713 5714 5715 5715 5716 5716
5631 5632 5633 5634 5635 5636 5638 5640 5641 5643 5644 5646 5647 5648 5649 5651 5652 5653 5654 5656 5657 5658 5660 5661 5663 5665 5667 5668 5669 5670 5671 5671 5672 5673 5674 5676 5677 5678 5679 5680 5682 5683 5684 5685 5686 5686 5687 5688 5689 5690 5690 5691 5692 5693 5693 5694 5694 5695 5696 5697 5698 5699 5700 5701 5701 5702 5703 5703 5704 5704 5705 5705 5705 5706 5706 5707 5707 5708 5708 5709 5709 5709 5710 5711 5711 5711 5711
5629 5630 5631 5632 5633 5635 5636 5637 5639 5641 5642 5644 5645 5646 5648 5649 5651 5652 5653 5654 5655 5656 5657 5659 5660 5662 5663 5664 5665 5665 5666 5667 5669 5669 5670 5672 5673 5673 5674 5676 5677 5679 5680 5681 5682 5683 5684 5685 5686 5686 5687 5688 5688 5689 5690 5690 5691 5691 5692 5693 5694 5695 5696 5697 5698 5699 5699 5700 5700 5701 5701 5701 5702 5702 5703 5703 5703 5704 5704 5705 5705 5705 5706 5706 5706 5707 5707
5627 5628 5629 5630 5632 5633 5635 5636 5638 5639 5641 5642 5643 5644 5646 5648 5649 5650 5651 5652 5653 5654 5655 5656 5658 5659 5660 5661 5662 5662 5662 5664 5665 5666 5666 5668 5669 5670 5671 5672 5673 5675 5676 5677 5678 5679 5681 5681 5682 5682 5683 5683 5684 5685 5686 5686 5687 5687 5688 5689 5689 5690 5691 5692 5693 5694 5695 5696 5696 5696 5697 5697 5697 5698 5698 5699 5699 5699 5700 5700 5700 5701 5701 5701 5701 5701 5701
5625 5627 5628 5629 5631 5632 5633 5635 5636 5638 5639 5640 5641 5643 5644 5646 5647 5648 5650 5651 5652 5653 5653 5655 5656 5657 5657 5658 5659 5659 5660 5661 5662 5663 5663 5664 5665 5666 5667 5669 5670 5671 5672 5673 5674 5675 5676 5677 5677 5678 5678 5679 5680 5680 5681 5682 5683 5683 5684 5684 5685 5685 5686 5687 5688 5690 5691 5691 5691 5692 5692 5692 5693 5693 5693 5694 5694 5694 5695 5695 5695 5695 5695 5695 5695 5695 5695
5624 5625 5627 5628 5629 5631 5632 5634 5635 5636 5637 5639 5640 5641 5643 5644 5645 5646 5647 5649 5650 5651 5652 5652 5653 5654 5655 5656 5656 5657 5658 5658 5659 5660 5660 5661 5662 5662 5663 5665 5666 5667 5668 5668 5669 5670 5671 5672 5673 5674 5674 5675 5675 5676 5677 5678 5678 5679 5679 5680 5680 5681 5681 5682 5684 5685 5686 5686 5687 5687 5687 5687 5688 5688 5688 5688 5689 5689 5689 5690 5690 5690 5690 5690 5690 5689 5689
5623 5624 5625 5627 5628 5629 5631 5632 5634 5635 5636 5637 5638 5639 5641 5642 5643 5644 5645 5646 5647 5648 5649 5650 5650 5651 5651 5652 5653 5654 5654 5655 5656 5656 5657 5658 5658 5659 5660 5661 5662 5662 5663 5664 5665 5666 5667 5668 5669 5670 5670 5671 5671 5672 5673 5673 5674 5674 5675 5675 5676 5677 5677 5678 5679 5680 5681 5681 5682 5682 5682 5682 5683 5683 5683 5683 5684 5684 5684 5684 5685 5685 5684 5684 5684 5684 5684
5622 5623 5625 5626 5627 5628 5630 5631 5632 5633 5634 5635 5636 5637 5639 5640 5641 5642 5642 5643 5644 5645 5646 5647 5647 5648 5648 5649 5650 5651 5651 5652 5652 5653 5653 5654 5654 5655 5656 5657 5657 5658 5659 5660 5661 5662 5663 5663 5664 5665 5666 5667 5667 5668 5669 5669 5670 5670 5671 5671 5672 5672 5673 5674 5674 5675 5676 5676 5677 5677 5678 5678 5678 5678 5679 5679 5679 5679 5680 5680 5679 5679 5679 5679 5678 5678 5678
5621 5622 5624 5625 5626 5627 5628 5630 5631 5632 5633 5634 5635 5635 5636 5637 5638 5639 5640 5641 5642 5642 5643 5644 5644 5645 5645 5646 5646 5647 5648 5649 5649 5650 5650 5650 5651 5652 5652 5653 5654 5654 5655 5656 5657 5658 5659 5659 5660 5661 5661 5662 5663 5664 5664 5665 5665 5666 5667 5667 5668 5668 5669 5669 5670 5671 5671 5672 5672 5673 5673 5674 5674 5674 5674 5675 5675 5675 5675 5675 5674 5674 5674 5673 5673 5672 5672
5620 5621 5623 5624 5625 5626 5627 5628 5629 5630 5631 5632 5633 5633 5634 5635 5636 5636 5637 5638 5638 5639 5640 5640 5641 5642 5642 5642 5642 5643 5644 5645 5645 5646 5646 5647 5647 5648 5648 5649 5649 5650 5651 5652 5653 5654 5655 5655 5656 5656 5657 5657 5658 5659 5660 5660 5661 5662 5663 5663 5664 5664 5665 5666 5666 5667 5667 5668 5668 5669 5669 5669 5670 5670 5670 5670 5670 5670 5670 5670 5669 5669 5668 5668 5667 5666 5666
5619 5620 5621 5623 5624 5625 5626 5627 5628 5629 5629 5630 5630 5631 5632 5632 5633 5634 5634 5635 5635 5635 5636 5636 5637 5637 5638 5638 5638 5639 5639 5640 5641 5641 5642 5642 5643 5643 5644 5645 5645 5646 5646 5647 5648 5649 5650 5651 5651 5652 5653 5653 5654 5655 5655 5656 5657 5658 5658 5659 5660 5660 5661 5662 5662 5663 5663 5664 5664 5664 5664 5664 5665 5665 5665 5664 5664 5664 5664 5664 5663 5663 5662 5662 5661 5660 5660
5618 5619 5620 5621 5622 5623 5624 5625 5626 5627 5627 5628 5629 5629 5629 5630 5630 5631 5631 5631 5632 5632 5632 5632 5633 5633 5633 5634 5634 5634 5635 5635 5636 5636 5637 5638 5638 5639 5639 5640 5641 5641 5642 5643 5644 5645 5646 5647 5647 5648 5648 5649 5650 5651 5651 5652 5653 5654 5654 5655 5655 5656 5657 5657 5658 5658 5658 5659 5659 5659 5659 5659 5659 5659 5659 5659 5658 5658 5658 5658 5657 5657 5656 5656 5655 5654 5653
5617 5618 5619 5620 5620 5621 5622 5623 5624 5625 5625 5626 5626 5627 5627 5627 5628 5628 5628 5628 5628 5628 5628 5628 5629 5629 5629 5630 5630 5630 5631 5631 5631 5632 5632 5633 5633 5634 5635 5635 5636 5636 5637 5638 5639 5641 5642 5642 5643 5643 5644 5645 5646 5646 5647 5648 5648 5649 5650 5650 5651 5651 5651 5652 5652 5653 5653 5653 5653 5653 5653 5653 5653 5653 5653 5653 5653 5652 5652 5652 5651 5651 5650 5649 5648 5647 5646
5616 5616 5617 5618 5618 5619 5620 5621 5622 5622 5623 5624 5624 5624 5624 5625 5625 5625 5625 5624 5624 5624 5624 5624 5624 5625 5625 5625 5626 5626 5626 5627 5627 5627 5628 5629 5629 5630 5630 5631 5631 5632 5632 5633 5634 5635 5636 5637 5638 5638 5639 5640 5641 5641 5642 5643 5643 5644 5644 5645 5645 5646 5646 5646 5647 5647 5647 5647 5647 5647 5647 5647 5647 5647 5646 5646 5647 5646 5646 5646 5645 5645 5644 5643 5642 5641 5639
5616 5617 5617 5617 5618 5618 5619 5620 5620 5621 5621 5621 5621 5621 5621 5621 5621 5621 5621 5620 5619 5619 5619 5619 5619 5619 5619 5620 5620 5621 5621 5622 5622 5623 5623 5624 5625 5625 5626 5626 5626 5627 5627 5628 5629 5630 5631 5632 5632 5633 5633 5634 5635 5636 5637 5637 5638 5638 5639 5639 5639 5640 5640 5641 5641 5641 5641 5641 5641 5641 5641 5641 5641 5640 5640 5640 5640 5640 5640 5640 5639 5639 5638 5637 5637 5636 5634
5617 5617 5618 5618 5618 5619 5619 5619 5620 5620 5620 5620 5619 5619 5619 5618 5618 5617 5616 5615 5614 5614 5614 5614 5613 5613 5613 5613 5614 5614 5615 5616 5616 5617 5618 5618 5619 5620 5620 5621 5621 5622 5622 5623 5624 5625 5626 5627 5627 5627 5628 5629 5630 5630 5631 5631 5632 5632 5632 5633 5633 5633 5634 5634 5634 5635 5635 5635 5635 5635 5635 5635 5634 5634 5634 5634 5634 5634 5634 5633 5633 5632 5632 5631 5630 5630 5629
5618 5618 5618 5618 5619 5619 5619 5619 5619 5619 5618 5618 5618 5617 5616 5615 5614 5613 5612 5611 5610 5609 5608 5608 5608 5607 5607 5607 5608 5608 5609 5609 5610 5611 5612 5613 5613 5614 5614 5615 5615 5616 5617 5617 5618 5619 5620 5621 5621 5622 5622 5623 5624 5624 5625 5625 5626 5626 5626 5627 5627 5628 5628 5628 5629 5629 5629 5630 5630 5629 5629 5629 5629 5629 5629 5628 5628 5628 5628 5628 5627 5626 5626 5625 5624 5623 5622
5618 5618 5618 5618 5618 5618 5618 5618 5618 5618 5617 5617 5616 5615 5614 5613 5612 5610 5609 5607 5606 5604 5603 5602 5602 5602 5602 5602 5603 5603 5603 5603 5604 5605 5606 5607 5607 5608 5609 5609 5610 5610 5611 5612 5613 5613 5614 5615 5616 5616 5617 5618 5618 5619 5619 5620 5620 5620 5621 5621 5622 5622 5623 5623 5624 5624 5624 5624 5624 5624 5624 5624 5623 5623 5623 5623 5622 5622 5622 5622 5621 5621 5620 5619 5618 5617 5616
5618 5618 5618 5618 5618 5618 5618 5617 5617 5617 5616 5615 5615 5614 5613 5611 5610 5608 5607 5605 5603 5601 5599 5598 5597 5597 5597 5597 5597 5598 5598 5598 5599 5599 5600 5601 5601 5602 5603 5603 5604 5605 5605 5606 5607 5608 5609 5610 5610 5611 5611 5612 5613 5613 5613 5614 5615 5615 5616 5616 5617 5617 5618 5618 5619 5619 5619 5619 5619 5619 5619 5618 5618 5617 5617 5617 5617 5617 5616 5616 5615 5615 5614 5613 5612 5611 5610
5617 5617 5617 5617 5617 5617 5616 5616 5616 5615 5615 5614 5613 5612 5611 5610 5608 5607 5605 5603 5600 5598 5596 5595 5594 5593 5593 5592 5592 5592 5593 5593 5594 5594 5595 5595 5596 5597 5597 5598 5599 5599 5600 5601 5602 5602 5603 5604 5605 5605 5606 5607 5607 5608 5608 5609 5610 5610 5611 5611 5612 5612 5613 5613 5613 5614 5614 5614 5614 5614 5613 5613 5612 5612 5611 5611 5611 5611 5611 5610 5610 5609 5608 5607 5607 5606 5606
5617 5616 5616 5616 5616 5616 5615 5615 5614 5614 5613 5612 5611 5610 5609 5608 5606 5605 5603 5601 5598 5596 5594 5592 5591 5590 5589 5589 5588 5588 5588 5589 5589 5589 5590 5591 5591 5592 5593 5593 5594 5595 5595 5596 5597 5597 5598 5599 5600 5600 5601 5602 5602 5603 5603 5604 5604 5605 5606 5606 5607 5607 5607 5608 5608 5609 5609 5609 5608 5608 5608 5608 5608 5607 5606 5606 5606 5606 5606 5605 5605 5604 5604 5603 5602 5602 5602
5616 5615 5615 5615 5614 5614 5614 5613 5613 5612 5611 5611 5610 5609 5607 5606 5604 5603 5601 5599 5597 5594 5592 5590 5588 5587 5586 5585 5585 5585 5585 5585 5585 5585 5586 5586 5587 5588 5588 5589 5589 5590 5590 5591 5592 5593 5593 5594 5595 5595 5596 5597 5597 5598 5598 5599 5600 5600 5601 5601 5602 5602 5602 5603 5603 5603 5604 5604 5603 5603 5603 5603 5603 5602 5601 5601 5601 5601 5601 5601 5600 5600 5600 5599 5599 5598 5598
5615 5614 5614 5614 5613 5613 5612 5612 5611 5610 5610 5609 5608 5607 5605 5604 5602 5601 5599 5597 5595 5593 5590 5588 5586 5585 5583 5583 5582 5582 5582 5582 5582 5582 5582 5582 5583 5583 5584 5584 5585 5585 5586 5586 5587 5588 5589 5590 5590 5591 5591 5592 5592 5593 5593 5594 5595 5595 5596 5596 5597 5597 5597 5598 5598 5598 5599 5599 5599 5599 5599 5599 5598 5598 5597 5597 5597 5597 5597 5597 5597 5597 5596 5596 5596 5595 5595
5614 5613 5613 5613 5612 5612 5611 5610 5610 5609 5608 5607 5606 5605 5603 5602 5601 5599 5598 5596 5594 5591 5589 5587 5585 5583 5581 5580 5579 5579 5579 5579 5579 5579 5579 5579 5579 5579 5580 5580 5581 5581 5581 5582 5583 5583 5584 5585 5585 5586 5586 5587 5587 5588 5589 5589 5590 5591 5591 5592 5592 5592 5592 5593 5593 5593 5594 5594 5594 5594 5594 5594 5594 5594 5593 5593 5593 5594 5594 5594 5594 5593 5593 5593 5593 5592 5592
5613 5612 5612 5611 5611 5610 5610 5609 5608 5607 5606 5605 5604 5603 5602 5600 5599 5597 5596 5594 5592 5590 5588 5586 5584 5582 5580 5578 5577 5576 5576 5576 5576 5576 5576 5575 5576 5576 5576 5576 5577 5577 5577 5578 5578 5579 5580 5580 5581 5581 5582 5582 5583 5583 5584 5585 5585 5586 5586 5587 5587 5587 5587 5588 5588 5589 5589 5589 5589 5590 5590 5590 5590 5590 5590 5590 5590 5590 5590 5590 5590 5590 5590 5590 5590 5589 5589
5611 5611 5611 5610 5609 5609 5608 5607 5606 5606 5605 5604 5603 5601 5600 5599 5597 5596 5594 5592 5591 5589 5587 5585 5583 5581 5579 5577 5576 5574 5574 5573 5573 5573 5573 5573 5573 5573 5573 5573 5573 5574 5574 5574 5574 5575 5575 5576 5576 5577 5578 5578 5578 5579 5579 5580 5581 5581 5582 5582 5582 5582 5583 5583 5583 5584 5584 5585 5585 5585 5585 5586 5586 5586 5586 5586 5586 5587 5587 5587 5587 5587 5587 5587 5587 5587 5586
5610 5610 5609 5609 5608 5607 5606 5606 5605 5604 5603 5602 5601 5600 5599 5597 5595 5594 5593 5591 5589 5588 5586 5584 5582 5580 5578 5576 5575 5573 5572 5571 5571 5570 5570 5570 5570 5570 5570 5570 5570 5570 5571 5571 5571 5571 5572 5572 5572 5573 5573 5574 5574 5574 5575 5576 5576 5577 5577 5577 5578 5578 5578 5579 5579 5579 5580 5580 5581 5581 5581 5582 5582 5582 5583 5583 5583 5584 5584 5584 5584 5584 5584 5584 5584 5584 5584
5609 5609 5608 5607 5607 5606 5605 5604 5603 5602 5601 5600 5599 5598 5597 5596 5594 5592 5591 5590 5588 5586 5585 5583 5581 5580 5578 5576 5574 5572 5571 5570 5569 5568 5568 5568 5568 5568 5568 5568 5568 5568 5568 5568 5568 5568 5568 5569 5569 5569 5569 5570 5570 5571 5571 5572 5572 5572 5573 5573 5573 5573 5574 5574 5574 5575 5575 5576 5576 5577 5577 5578 5578 5578 5579 5579 5580 5580 5581 5581 5581 5581 5581 5581 5581 5581 5581
5608 5608 5607 5606 5605 5605 5604 5603 5602 5601 5600 5599 5598 5597 5596 5594 5593 5591 5589 5588 5587 5585 5584 5582 5581 5579 5577 5575 5573 5572 5570 5569 5568 5567 5566 5566 5565 5565 5565 5565 5565 5565 5565 5565 5565 5565 5565 5565 5566 5566 5566 5566 5567 5567 5567 5568 5568 5568 5568 5569 5569 5569 5569 5570 5570 5570 5571 5572 5572 5573 5573 5574 5574 5575 5575 5576 5576 5577 5577 5578 5578 5578 5579 5579 5579 5578 5578
5607 5606 5606 5605 5604 5603 5603 5602 5601 5600 5599 5598 5597 5595 5594 5593 5591 5590 5588 5587 5585 5584 5583 5581 5580 5578 5577 5575 5573 5571 5570 5568 5567 5566 5565 5564 5563 5563 5562 5562 5562 5562 5562 5562 5562 5562 5562 5562 5562 5562 5562 5563 5563 5563 5563 5564 5564 5564 5564 5564 5565 5565 5565 5566 5566 5566 5567 5568 5568 5569 5569 5570 5570 5571 5572 5572 5573 5573 5574 5574 5575 5575 5576 5576 5576 5576 5575
5606 5605 5604 5604 5603 5602 5601 5600 5599 5598 5597 5596 5595 5594 5592 5591 5590 5589 5587 5586 5584 5583 5582 5580 5578 5577 5576 5574 5572 5571 5569 5568 5566 5565 5564 5563 5562 5561 5560 5560 5560 5559 5559 5559 5559 5559 5559 5559 5559 5559 5559 5559 5559 5559 5559 5559 5560 5560 5560 5560 5560 5561 5561 5561 5562 5563 5563 5564 5564 5565 5565 5566 5567 5567 5568 5569 5569 5570 5570 5571 5571 5572 5572 5573 5573 5573 5573
5605 5604 5603 5602 5602 5601 5600 5599 5598 5597 5596 5595 5594 5592 5591 5590 5589 5587 5586 5585 5583 5582 5580 5579 5577 5576 5574 5573 5571 5570 5568 5567 5566 5564 5563 5562 5560 5559 5558 5558 5557 5557 5556 5556 5556 5556 5556 5555 5555 5555 5555 5555 5555 5555 5555 5555 5556 5556 5556 5556 5556 5557 5557 5557 5558 5559 5559 5560 5560 5561 5562 5563 5563 5564 5564 5565 5566 5566 5567 5568 5568 5569 5569 5569 5570 5570 5569
5604 5603 5603 5602 5601 5600 5599 5598 5597 5596 5595 5594 5592 5591 5590 5588 5587 5586 5584 5583 5581 5580 5578 5577 5576 5574 5573 5571 5570 5569 5567 5566 5564 5563 5562 5560 5559 5558 5557 5556 5555 5554 5554 5553 5553 5553 5553 5552 5552 5552 5552 5552 5552 5551 5551 5551 5551 5552 5552 5552 5552 5553 5553 5554 5554 5555 5555 5556 5556 5557 5558 5559 5560 5560 5561 5561 5562 5563 5563 5564 5565 5565 5566 5566 5566 5566 5566
5604 5603 5602 5602 5601 5600 5599 5598 5596 5595 5594 5592 5591 5590 5588 5587 5585 5584 5582 5581 5580 5578 5577 5575 5573 5572 5571 5569 5568 5567 5565 5564 5563 5561 5560 5559 5558 5556 5555 5554 5553 5552 5552 5551 5550 5550 5550 5549 5549 5549 5549 5548 5548 5548 5548 5548 5548 5548 5548 5548 5549 5549 5549 5550 5550 5551 5552 5552 5553 5553 5554 5555 5556 5556 5557 5558 5558 5559 5560 5560 5561 5562 5562 5563 5563 5563 5563
5604 5603 5602 5601 5600 5599 5598 5597 5596 5594 5593 5591 5590 5588 5587 5585 5584 5582 5581 5579 5578 5576 5574 5573 5571 5570 5569 5568 5566 5565 5563 5562 5560 5559 5558 5557 5556 5554 5553 5552 5551 5550 5549 5549 5548 5547 5547 5546 5546 5546 5545 5545 5545 5544 5544 5544 5544 5544 5544 5545 5545 5545 5546 5546 5547 5547 5548 5548 5549 5550 5550 5551 5552 5553 5553 5554 5555 5555 5556 5557 5557 5558 5559 5559 5559 5560 5560
5603 5603 5602 5601 5600 5599 5597 5596 5595 5593 5592 5590 5589 5587 5585 5584 5582 5581 5579 5577 5575 5574 5572 5570 5569 5567 5566 5565 5564 5562 5561 5560 5558 5557 5556 5555 5553 5552 5551 5550 5549 5548 5547 5546 5545 5545 5544 5543 5543 5542 5542 5542 5541 5541 5541 5541 5541 5541 5541 5541 5541 5542 5542 5543 5543 5544 5544 5545 5545 5546 5546 5547 5548 5548 5549 5550 5551 5551 5552 5553 5554 5554 5555 5556 5556 5556 5556
5603 5602 5601 5600 5599 5598 5596 5595 5594 5592 5591 5589 5587 5586 5584 5582 5581 5579 5577 5575 5573 5572 5570 5568 5567 5565 5564 5563 5561 5560 5558 5557 5556 5555 5553 5552 5551 5550 5548 5547 5546 5545 5544 5543 5543 5542 5541 5541 5540 5540 5539 5539 5538 5538 5538 5537 5537 5537 5537 5537 5537 5538 5538 5538 5539 5539 5540 5541 5541 5542 5542 5543 5543 5544 5545 5545 5546 5547 5548 5549 5550 5551 5551 5552 5552 5553 5553
5602 5601 5600 5599 5598 5596 5595 5594 5592 5591 5589 5587 5586 5584 5582 5580 5579 5577 5575 5573 5571 5570 5568 5566 5564 5562 5561 5560 5558 5557 5555 5554 5553 5552 5550 5549 5548 5546 5545 5544 5543 5543 5542 5541 5540 5539 5539 5538 5537 5537 5536 5536 5535 5535 5535 5534 5534 5534 5534 5534 5534 5534 5534 5535 5535 5535 5536 5536 5537 5537 5538 5538 5538 5539 5540 5541 5543 5544 5544 5545 5546 5547 5547 5548 5549 5549 5549